Location: Hilton Head Island
(32.2163°N, 80.7526°W)
Time: 15:17:23
(UTC-04:00)

Vanguard 2 Rocket - Pass Details

Date: 25 February 2026
Orbit: 553 x 3286 km, 32.9° (Epoch: 10 March)

Event Time Altitude Azimuth Distance (km) Brightness Sun altitude
Rises 07:05:45 0° 196° (SSW) 5,710 10.9 1.4°
Reaches altitude 10° 07:10:06 10° 184° (S) 5,098 10.8 2.3°
Maximum altitude 07:22:18 27° 134° (SE) 4,629 11.5 4.8°
Drops below altitude 10° 07:36:56 10° 86° (E) 6,234 12.8 7.8°
Sets 07:42:57 0° 76° (ENE) 7,191 12.6 9.1°
